Location: Invercargill
(46.4000°S, 168.3500°E)
Time: 12:37:53
(UTC+12:00)

Transit 2A Rocket - All Passes

Search period start: 20 August 2019 00:00
Search period end: 30 August 2019 00:00
Orbit: 590 x 913 km, 66.7° (Epoch: 18 August)

Date Brightness Start Highest point End Pass type
(mag) Time Alt. Az. Time Alt. Az. Time Alt. Az.
20 Aug - 07:14:18 10° ENE 07:15:59 12° ENE 07:17:43 10° E daylight
20 Aug - 08:52:56 10° NNW 08:57:35 89° ENE 09:02:44 10° SE daylight
20 Aug - 10:37:25 10° W 10:41:00 20° SW 10:44:50 10° SSE daylight
20 Aug - 14:09:48 10° S 14:11:18 11° SSE 14:12:48 10° SE daylight
20 Aug - 15:50:51 10° SSW 15:55:49 30° SE 16:01:00 10° ENE daylight
20 Aug - 17:33:07 10° SW 17:38:53 67° WNW 17:44:55 10° NNE daylight
20 Aug - 19:18:36 10° W 19:20:35 12° WNW 19:22:34 10° WNW visible
21 Aug - 08:10:40 10° NNW 08:15:09 52° ENE 08:20:06 10° SE daylight
21 Aug - 09:53:56 10° W 09:58:04 28° SW 10:02:34 10° SSE daylight
21 Aug - 11:42:03 10° SSW 11:42:38 10° SSW 11:43:12 10° S daylight
21 Aug - 15:08:34 10° SSW 15:12:54 22° SE 15:17:25 10° E daylight
21 Aug - 16:50:32 10° SSW 16:56:22 81° ESE 17:02:28 10° NE daylight
21 Aug - 18:34:18 10° WSW 18:38:26 20° WNW 18:42:40 10° NNW visible
22 Aug - 07:28:48 10° N 07:32:50 30° ENE 07:37:14 10° SE daylight
22 Aug - 09:10:46 10° WNW 09:15:15 41° SW 09:20:13 10° SSE daylight
22 Aug - 10:57:11 10° SW 10:59:25 13° SSW 11:01:44 10° S daylight
22 Aug - 14:26:22 10° S 14:29:52 16° SSE 14:33:30 10° ESE daylight
22 Aug - 16:08:05 10° SSW 16:13:44 54° SE 16:19:41 10° NE daylight
22 Aug - 17:51:04 10° SW 17:56:11 32° WNW 18:01:29 10° N daylight
23 Aug - 06:47:35 10° NNE 06:50:40 18° ENE 06:53:56 10° ESE visible
23 Aug - 08:27:55 10° NW 08:32:35 66° SW 08:37:46 10° SSE daylight
23 Aug - 10:13:08 10° WSW 10:16:19 17° SSW 10:19:40 10° S daylight
23 Aug - 13:44:16 10° S 13:46:44 13° SSE 13:49:17 10° SE daylight
23 Aug - 15:25:41 10° SSW 15:31:01 37° SE 15:36:36 10° ENE daylight
23 Aug - 17:08:12 10° SW 17:13:50 50° WNW 17:19:41 10° N daylight
24 Aug - 07:45:24 10° NNW 07:50:03 76° ENE 07:55:13 10° SE daylight
24 Aug - 09:29:27 10° W 09:33:18 22° SW 09:37:27 10° SSE daylight
24 Aug - 13:02:34 10° S 13:03:31 10° SSE 13:04:30 10° SSE daylight
24 Aug - 14:43:21 10° SSW 14:48:10 27° SE 14:53:12 10° E daylight
24 Aug - 16:25:32 10° SW 16:31:23 78° WNW 16:37:29 10° NNE daylight
24 Aug - 18:10:11 10° WSW 18:13:12 14° WNW 18:16:16 10° NW daylight
25 Aug - 07:03:15 10° N 07:07:40 44° ENE 07:12:30 10° SE daylight
25 Aug - 08:46:05 10° WNW 08:50:25 32° SW 08:55:08 10° SSE daylight
25 Aug - 10:33:21 10° SW 10:34:50 11° SSW 10:36:22 10° S daylight
25 Aug - 14:01:06 10° SSW 14:05:13 20° SE 14:09:30 10° E daylight
25 Aug - 15:43:00 10° SSW 15:48:50 71° SE 15:54:56 10° NE daylight
25 Aug - 17:26:28 10° WSW 17:31:02 24° WNW 17:35:43 10° NNW daylight
26 Aug - 06:21:35 10° NNE 06:25:24 25° ENE 06:29:32 10° SE visible
26 Aug - 08:03:02 10° NW 08:07:38 48° SW 08:12:45 10° SSE daylight
26 Aug - 09:49:00 10° WSW 09:51:40 14° SSW 09:54:27 10° S daylight
26 Aug - 13:18:55 10° S 13:22:09 15° SSE 13:25:30 10° ESE daylight
26 Aug - 15:00:34 10° SSW 15:06:10 48° SE 15:12:03 10° ENE daylight
26 Aug - 16:43:23 10° SW 16:48:45 37° WNW 16:54:17 10° N daylight
27 Aug - 05:40:41 10° NE 05:43:16 15° ENE 05:45:58 10° ESE visible
27 Aug - 07:20:18 10° NW 07:25:01 78° SW 07:30:16 10° SSE daylight
27 Aug - 09:05:07 10° WSW 09:08:35 18° SSW 09:12:17 10° SSE daylight
27 Aug - 12:36:51 10° S 12:38:59 12° SSE 12:41:10 10° SE daylight
27 Aug - 14:18:12 10° SSW 14:23:24 33° SE 14:28:50 10° ENE daylight
27 Aug - 16:00:36 10° SW 16:06:22 58° WNW 16:12:21 10° NNE daylight
28 Aug - 06:37:54 10° NNW 06:42:31 63° ENE 06:47:40 10° SE visible
28 Aug - 08:21:33 10° W 08:25:37 25° SW 08:30:02 10° SSE daylight
28 Aug - 13:35:53 10° SSW 13:40:32 24° SE 13:45:20 10° E daylight
28 Aug - 15:17:58 10° SW 15:23:53 89° WNW 15:30:01 10° NNE daylight
28 Aug - 17:02:06 10° WSW 17:05:49 17° WNW 17:09:36 10° NW daylight
29 Aug - 05:55:54 10° N 06:00:11 36° ENE 06:04:53 10° SE visible
29 Aug - 07:38:17 10° WNW 07:42:46 37° SW 07:47:42 10° SSE daylight
29 Aug - 09:25:02 10° SW 09:27:04 12° SSW 09:29:11 10° S daylight
29 Aug - 12:53:38 10° S 12:57:31 18° SSE 13:01:33 10° ESE daylight
29 Aug - 14:35:29 10° SSW 14:41:17 62° SE 14:47:20 10° NE daylight
29 Aug - 16:18:40 10° SW 16:23:37 28° WNW 16:28:39 10° NNW daylight
